Regional Weather Roundup
Issued by NWS Cleveland, OH

Home | Current Version | Previous Version | Text Only | Print | Product List | Glossary Off
Versions: 1 2 3 4 5 6 7 8 9 10 11 12 13 14 15 16 17 18 19 20 21 22 23 24 25 26 27 28 29 30 31 32 33 34 35 36 37 38 39 40 41 42 43 44 45 46 47 48 49 50

000
ASUS41 KCLE 240110
RWRCLE
OHIO REGIONAL WEATHER ROUNDUP
NATIONAL WEATHER SERVICE CLEVELAND, OH
800 PM EST MON JAN 23 2017

NOTE: "FAIR" INDICATES FEW OR NO CLOUDS BELOW 12,000 FEET WITH NO
SIGNIFICANT WEATHER AND/OR OBSTRUCTIONS TO VISIBILITY.

OHZ001>008-015>018-024>027-034-035-043-044-240200-
   NORTHWEST OHIO

CITY           SKY/WX    TMP DP  RH WIND       PRES   REMARKS
DEFIANCE       LGT RAIN  42  41  96 N6        29.70R
FINDLAY        LGT RAIN  41  37  86 NE15      29.66R
TOLEDO EXPRESS LGT RAIN  42  42 100 NE7       29.69R FOG
TOLEDO EXEC    LGT RAIN  43  42  97 NE7       29.70R FOG
LIMA           LGT RAIN  39  39 100 N10       29.66R FOG
$$

OHZ009>014-019>023-028>033-038-089-240200-
   NORTHEAST OHIO

CITY           SKY/WX    TMP DP  RH WIND       PRES   REMARKS
CLE-HOPKINS    DRIZZLE   42  38  85 N9        29.66R
CLE-LAKEFRONT  LGT RAIN  38  36  92 NE13      29.64R
CUY CO. ARPT   CLOUDY    43  41  93 NE9       29.64R
LORAIN-ELYRIA  CLOUDY    38  36  92 NE10      29.65R FOG
ASHTABULA      CLOUDY    39  39 100 VRB7      29.65R
AKRON-CANTON   LGT RAIN  43  39  86 SE6       29.61R FOG
WOOSTER        CLOUDY    42  40  92 CALM      29.62R FOG
MANSFIELD      CLOUDY    42  42 100 N6        29.62R FOG
YOUNGSTOWN     LGT RAIN  42  38  85 E10       29.61S
$$

OHZ042-051>053-060>062-070>072-077>081-240200-
  SOUTHWEST OHIO

CITY           SKY/WX    TMP DP  RH WIND       PRES   REMARKS
CINC-COVINGTON DRIZZLE   45  44  97 NW13      29.65R FOG
CINC-LUNKEN    LGT RAIN  47  46  97 NW5       29.66R FOG
HAMILTON       LGT RAIN  46  44  93 NW8       29.66R
DAYTON         LGT RAIN  41  40  96 N14       29.65R FOG
WRIGHT-PAT AFB CLOUDY    42  42 100 N15       29.63R FOG
DAYTON GENERAL CLOUDY    43  41  93 N10       29.63R
WILMINGTON     CLOUDY    44  43  96 N13       29.61R FOG
$$

OHZ036-037-039>041-045>050-054>059-063>069-073>076-082>088-240200-
  CENTRAL AND SOUTHEAST OHIO

CITY           SKY/WX    TMP DP  RH WIND       PRES   REMARKS
COLUMBUS       CLOUDY    45  42  89 NE6       29.59S
OSU AIRPORT    LGT RAIN  44  44 100 N9        29.60R FOG
BOLTON FIELD   DRIZZLE   44  44  99 NE3       29.61R
RICKENBACK AFB   N/A     43  43 100 NE8       29.59S
NEWARK         CLOUDY    44  41  89 VRB6      29.59R
MARION         CLOUDY    40  38  93 N12       29.63R FOG
LANCASTER      CLOUDY    45  41  86 NE8       29.59S
ZANESVILLE     CLOUDY    42  38  85 NE7       29.60R
NEW PHILLY     NOT AVBL
$$




USA.gov is the U.S. government's official web portal to all federal, state and local government web resources and services.